• In Czech Republic
  • List of Countries
  • For 7 days
  • Water Temperature
  • Satellite Maps
  • Weather Map
  • Weather Widgets
  • user-avatar
    Login

    Hourly Weather Surovcy

    Today, 23 April, Monday

    Time Temperature Precipitation Wind Pressure Humidity
    00:00 -2°C° 0 mm 4 mps 738 mmHg 69%
    01:00 -2°C° 0 mm 4 mps 738 mmHg 70%
    02:00 -2°C° 0 mm 4 mps 739 mmHg 71%
    03:00 -4°C° 0 mm 5 mps 739 mmHg 72%
    04:00 -2°C° 0 mm 5 mps 739 mmHg 72%
    05:00 -2°C° 0 mm 5 mps 740 mmHg 72%
    06:00 -2°C° 0 mm 5 mps 740 mmHg 72%
    07:00 -2°C° 0 mm 6 mps 740 mmHg 64%
    08:00 -1°C° 0 mm 6 mps 741 mmHg 56%
    09:00 0°C° 0 mm 7 mps 741 mmHg 47%
    10:00 +2°C° 0 mm 7 mps 741 mmHg 46%
    11:00 +3°C° 0 mm 7 mps 741 mmHg 45%
    12:00 +3°C° 0 mm 7 mps 741 mmHg 43%
    13:00 +4°C° 0 mm 7 mps 741 mmHg 43%
    14:00 +4°C° 0 mm 7 mps 742 mmHg 42%
    15:00 +5°C° 0 mm 7 mps 742 mmHg 42%
    16:00 +5°C° 0 mm 6 mps 742 mmHg 43%
    17:00 +4°C° 0 mm 6 mps 742 mmHg 44%
    18:00 +5°C° 0 mm 5 mps 742 mmHg 45%
    19:00 +4°C° 0 mm 4 mps 743 mmHg 50%
    20:00 +3°C° 0 mm 3 mps 743 mmHg 54%
    21:00 +2°C° 0 mm 3 mps 743 mmHg 59%
    22:00 +2°C° 0 mm 2 mps 743 mmHg 61%
    23:00 +2°C° 0 mm 2 mps 744 mmHg 64%

    Tomorrow, 24 April, Tuesday

    Time Temperature Precipitation Wind Pressure Humidity
    00:00 +1°C° 0 mm 2 mps 744 mmHg 66%
    01:00 +1°C° 0 mm 2 mps 744 mmHg 67%
    02:00 -1°C° 0 mm 2 mps 744 mmHg 68%
    03:00 -1°C° 0 mm 2 mps 744 mmHg 69%
    04:00 -1°C° 0 mm 2 mps 744 mmHg 68%
    05:00 +1°C° 0 mm 1 mps 745 mmHg 67%
    06:00 +1°C° 0 mm 1 mps 745 mmHg 66%
    07:00 +2°C° 0 mm 2 mps 745 mmHg 60%
    08:00 +4°C° 0 mm 2 mps 745 mmHg 54%
    09:00 +5°C° 0 mm 2 mps 745 mmHg 48%
    10:00 +6°C° 0 mm 2 mps 745 mmHg 45%
    11:00 +7°C° 0 mm 3 mps 745 mmHg 42%
    12:00 +8°C° 0 mm 3 mps 745 mmHg 38%
    13:00 +9°C° 0 mm 3 mps 744 mmHg 37%
    14:00 +10°C° 0 mm 3 mps 744 mmHg 36%
    15:00 +10°C° 0 mm 3 mps 744 mmHg 35%
    16:00 +10°C° 0 mm 3 mps 743 mmHg 37%
    17:00 +10°C° 0 mm 2 mps 743 mmHg 39%
    18:00 +10°C° 0 mm 2 mps 743 mmHg 41%
    19:00 +9°C° 0 mm 2 mps 742 mmHg 45%
    20:00 +8°C° 0 mm 2 mps 742 mmHg 48%
    21:00 +7°C° 0 mm 2 mps 742 mmHg 51%
    22:00 +7°C° 0 mm 3 mps 742 mmHg 54%
    23:00 +7°C° 0 mm 3 mps 742 mmHg 57%

    Day after tomorrow, 25 April, Wednesday

    Time Temperature Precipitation Wind Pressure Humidity
    00:00 +5°C° 0 mm 3 mps 741 mmHg 61%
    01:00 +5°C° 0.1 mm 3 mps 741 mmHg 66%
    02:00 +5°C° 0.1 mm 3 mps 741 mmHg 71%
    03:00 +5°C° 0.1 mm 3 mps 740 mmHg 77%
    04:00 +5°C° 0.8 mm 4 mps 740 mmHg 81%
    05:00 +5°C° 0.8 mm 4 mps 740 mmHg 85%
    06:00 +5°C° 0.8 mm 4 mps 739 mmHg 89%
    07:00 +6°C° 1.4 mm 4 mps 739 mmHg 91%
    08:00 +6°C° 1.4 mm 4 mps 739 mmHg 92%
    09:00 +6°C° 1.4 mm 4 mps 738 mmHg 93%
    10:00 +8°C° 0.3 mm 4 mps 738 mmHg 88%
    11:00 +10°C° 0.3 mm 4 mps 738 mmHg 83%
    12:00 +11°C° 0.3 mm 4 mps 738 mmHg 78%
    13:00 +12°C° 0.2 mm 5 mps 738 mmHg 73%
    14:00 +13°C° 0.2 mm 5 mps 738 mmHg 68%
    15:00 +14°C° 0.2 mm 5 mps 738 mmHg 63%
    16:00 +13°C° 0.3 mm 5 mps 737 mmHg 64%
    17:00 +13°C° 0.3 mm 5 mps 737 mmHg 66%
    18:00 +13°C° 0.3 mm 5 mps 737 mmHg 68%
    19:00 +12°C° 0.2 mm 4 mps 737 mmHg 73%
    20:00 +11°C° 0.2 mm 4 mps 737 mmHg 78%
    21:00 +9°C° 0.2 mm 3 mps 738 mmHg 83%
    22:00 +9°C° 0 mm 3 mps 738 mmHg 84%
    23:00 +8°C° 0 mm 3 mps 738 mmHg 85%

    26 April, Thursday

    Time Temperature Precipitation Wind Pressure Humidity
    00:00 +8°C° 0 mm 3 mps 738 mmHg 86%
    01:00 +7°C° 0 mm 3 mps 738 mmHg 86%
    02:00 +7°C° 0 mm 3 mps 738 mmHg 86%
    03:00 +7°C° 0 mm 3 mps 738 mmHg 86%
    04:00 +7°C° 0.1 mm 3 mps 738 mmHg 87%
    05:00 +7°C° 0.1 mm 3 mps 737 mmHg 88%
    06:00 +7°C° 0.1 mm 3 mps 737 mmHg 88%
    07:00 +8°C° 1.5 mm 3 mps 737 mmHg 90%
    08:00 +8°C° 1.5 mm 3 mps 736 mmHg 92%
    09:00 +8°C° 1.5 mm 3 mps 736 mmHg 94%
    10:00 +8°C° 1 mm 4 mps 735 mmHg 93%
    11:00 +9°C° 1 mm 5 mps 735 mmHg 91%
    12:00 +10°C° 1 mm 5 mps 735 mmHg 90%
    13:00 +13°C° 0.3 mm 6 mps 735 mmHg 83%
    14:00 +13°C° 0.3 mm 8 mps 735 mmHg 75%
    15:00 +16°C° 0.3 mm 9 mps 735 mmHg 68%
    16:00 +15°C° 0.1 mm 8 mps 735 mmHg 67%
    17:00 +15°C° 0.1 mm 8 mps 735 mmHg 66%
    18:00 +14°C° 0.1 mm 7 mps 736 mmHg 64%
    19:00 +11°C° 0 mm 6 mps 737 mmHg 68%
    20:00 +10°C° 0 mm 6 mps 738 mmHg 72%
    21:00 +8°C° 0 mm 5 mps 739 mmHg 76%
    22:00 +7°C° 0 mm 5 mps 739 mmHg 78%
    23:00 +7°C° 0 mm 4 mps 740 mmHg 80%

    27 April, Friday

    Time Temperature Precipitation Wind Pressure Humidity
    00:00 +6°C° 0 mm 4 mps 741 mmHg 82%
    01:00 +6°C° 0 mm 4 mps 741 mmHg 83%
    02:00 +5°C° 0 mm 3 mps 741 mmHg 84%
    03:00 +5°C° 0 mm 3 mps 742 mmHg 86%
    04:00 +5°C° 0 mm 3 mps 742 mmHg 86%
    05:00 +5°C° 0 mm 3 mps 742 mmHg 86%
    06:00 +5°C° 0 mm 3 mps 743 mmHg 85%
    07:00 +8°C° 0 mm 3 mps 743 mmHg 82%
    08:00 +9°C° 0 mm 3 mps 743 mmHg 78%
    09:00 +10°C° 0 mm 3 mps 744 mmHg 74%
    10:00 +10°C° 0.1 mm 3 mps 744 mmHg 74%
    11:00 +10°C° 0.1 mm 3 mps 744 mmHg 73%
    12:00 +10°C° 0.1 mm 2 mps 744 mmHg 73%
    13:00 +10°C° 0.4 mm 2 mps 743 mmHg 77%
    14:00 +10°C° 0.4 mm 2 mps 742 mmHg 80%
    15:00 +9°C° 0.4 mm 2 mps 742 mmHg 84%
    16:00 +9°C° 2.6 mm 3 mps 741 mmHg 86%
    17:00 +7°C° 2.6 mm 4 mps 740 mmHg 88%
    18:00 +7°C° 2.6 mm 5 mps 740 mmHg 90%
    19:00 +6°C° 1.8 mm 5 mps 739 mmHg 91%
    20:00 +6°C° 1.8 mm 4 mps 739 mmHg 92%
    21:00 +6°C° 1.8 mm 4 mps 739 mmHg 93%
    22:00 +5°C° 0 mm 4 mps 739 mmHg 93%
    23:00 +5°C° 0 mm 4 mps 740 mmHg 93%

    28 April, Saturday

    Time Temperature Precipitation Wind Pressure Humidity
    00:00 +5°C° 0 mm 5 mps 740 mmHg 93%
    01:00 +5°C° 0 mm 4 mps 741 mmHg 94%
    02:00 +4°C° 0 mm 4 mps 741 mmHg 94%
    03:00 +4°C° 0 mm 4 mps 742 mmHg 94%
    04:00 +5°C° 0 mm 5 mps 742 mmHg 92%
    05:00 +4°C° 0 mm 6 mps 743 mmHg 89%
    06:00 +5°C° 0 mm 6 mps 743 mmHg 87%
    07:00 +5°C° 0 mm 6 mps 744 mmHg 82%
    08:00 +6°C° 0 mm 7 mps 744 mmHg 78%
    09:00 +8°C° 0 mm 7 mps 745 mmHg 73%
    10:00 +10°C° 0 mm 7 mps 745 mmHg 68%
    11:00 +11°C° 0 mm 6 mps 746 mmHg 63%
    12:00 +13°C° 0 mm 6 mps 746 mmHg 58%
    13:00 +14°C° 0 mm 6 mps 747 mmHg 55%
    14:00 +14°C° 0 mm 6 mps 747 mmHg 52%
    15:00 +15°C° 0 mm 6 mps 747 mmHg 49%
    16:00 +14°C° 0 mm 5 mps 748 mmHg 52%
    17:00 +14°C° 0 mm 4 mps 748 mmHg 54%
    18:00 +14°C° 0 mm 3 mps 748 mmHg 56%
    19:00 +12°C° 0 mm 3 mps 748 mmHg 60%
    20:00 +11°C° 0 mm 3 mps 749 mmHg 64%
    21:00 +9°C° 0 mm 3 mps 749 mmHg 67%
    22:00 +9°C° 0 mm 3 mps 749 mmHg 68%
    23:00 +8°C° 0 mm 3 mps 750 mmHg 70%
    Show more